This demonstration page uses our WeatherBlox Daily Observations layout. Learn more.

Left ArrowRight Arrow

34.74481, -87.66753

Hourly Observations for December 21, 2018

Temp ( °F °C ) Dew Point ( °F °C ) Humidity (%) Winds ( mph kmh ) Pressure ( in mb ) Visibility ( mi km ) Precip ( " mm )
12:53 am 00:53 Cloudy with Mist and Fog 48 8.9 45 7.2 89 89 NW 10 17 29.45 997 6 10 0.00 0.00
1:07 am 01:07 Cloudy with Mist and Fog 48 8.9 45 7.2 89 89 WNW 12 19 29.50 999 6 10 0.00 0.00
1:53 am 01:53 Cloudy with Mist and Fog 46 7.8 43 6.1 89 89 NW 13 20 29.47 998 4 6 0.01 0.25
2:53 am 02:53 Cloudy 44 6.7 42 5.6 93 93 NW 15 24 29.48 998 10 16 0.00 0.00
3:53 am 03:53 Cloudy with Light Rain 43 6.1 40 4.4 89 89 NW 14 22 29.48 998 8 13 0.01 0.25
4:53 am 04:53 Cloudy 43 6.1 39 3.9 86 86 NNW 16 26 29.49 999 10 16 0.00 0.03
5:53 am 05:53 Cloudy 42 5.6 39 3.9 89 89 NW 13 20 29.52 1000 10 16 0.00 0.03
6:53 am 06:53 Cloudy with Light Rain 42 5.6 38 3.3 85 85 NW 12 19 29.55 1001 10 16 0.00 0.03
7:53 am 07:53 Cloudy 42 5.6 38 3.3 85 85 NW 13 20 29.58 1002 10 16 0.00 0.03
8:28 am 08:28 Cloudy with Light Rain 41 5 38 3.3 89 89 NW 13 20 29.65 1004 8 13 0.01 0.25
8:47 am 08:47 Cloudy 43 6 37 3 81 81 NW 10 17 29.65 1004 10 16 0.01 0.25
9:53 am 09:53 Cloudy 41 5 38 3.3 89 89 NW 15 24 29.65 1004 10 16 0.00 0.03
10:12 am 10:12 Cloudy 41 5 37 2.8 86 86 NW 17 28 29.68 1005 10 16 0.00 0.00
10:31 am 10:31 Cloudy 41 5 37 2.8 86 86 NW 14 22 29.71 1006 10 16 0.00 0.00
10:53 am 10:53 Cloudy 41 5 37 2.8 86 86 NW 12 19 29.67 1005 10 16 0.00 0.00
11:26 am 11:26 Cloudy 41 5 37 2.8 86 86 NW 15 24 29.71 1006 9 14 0.00 0.00
11:45 am 11:45 Cloudy 41 5 36 2.2 82 82 NW 16 26 29.71 1006 10 16 0.00 0.00
11:53 am 11:53 Cloudy 41 5 36 2.2 82 82 NW 14 22 29.67 1005 10 16 0.00 0.00
12:53 pm 12:53 Cloudy 41 5 36 2.2 82 82 NW 15 24 29.69 1005 10 16 0.00 0.00
1:53 pm 13:53 Cloudy 41 5 36 2.2 82 82 WNW 15 24 29.72 1007 10 16 0.00 0.00
2:53 pm 14:53 Cloudy 40 4.4 36 2.2 86 86 WNW 15 24 29.77 1008 8 13 0.00 0.00
3:53 pm 15:53 Cloudy 40 4.4 35 1.7 83 83 WNW 13 20 29.80 1009 9 14 0.00 0.00
4:53 pm 16:53 Cloudy 40 4.4 34 1.1 79 79 WNW 12 19 29.82 1010 10 16 0.00 0.00
5:19 pm 17:19 Cloudy 40 4.4 35 1.7 83 83 WNW 12 19 29.85 1011 10 16 0.00 0.00
5:53 pm 17:53 Cloudy 40 4.4 34 1.1 79 79 NW 12 19 29.85 1011 10 16 0.00 0.00
6:53 pm 18:53 Cloudy 41 5 34 1.1 76 76 WNW 13 20 29.89 1012 10 16 0.00 0.00
7:53 pm 19:53 Cloudy 41 5 33 0.6 73 73 WNW 13 20 29.91 1013 10 16 0.00 0.00
8:53 pm 20:53 Cloudy 41 5 33 0.6 73 73 NW 10 17 29.93 1014 10 16 0.00 0.00
9:53 pm 21:53 Cloudy 41 5 32 0 70 70 NW 7 11 29.93 1014 10 16 0.00 0.00
10:39 pm 22:39 Partly Cloudy 39 3.9 32 0 76 76 NW 6 9 29.94 1014 10 16 0.00 0.00
10:53 pm 22:53 Clear 37 2.8 31 -0.6 79 79 WNW 5 7 29.96 1015 10 16 0.00 0.00
11:53 pm 23:53 Clear 35 1.7 31 -0.6 85 85 WSW 5 7 29.96 1015 10 16 0.00 0.00

Powered by AerisWeather